www.pogodaiklimat.ru

Погода и климат >> Архив погоды >> Украина >> Кропивницкий


АРХИВ ПОГОДЫ в Кропивницком

Время (UTC), дата Ветер
(напр.,м/с)
 
Видим.   Явления Облачность Т
(С)
Тd
(С)
f
(%)
Тe
(С)
Тes
(С)
Комфортность P
(гПа)
Po
(гПа)
Тmin
(С)
Tmax
(С)
R
(мм)
R24
(мм)
S
(см)
03 14.11 ЮВ 4 10 км 6/0
[Ci fib]
-6.7 -9.1 83 -13 -13 очень
холодно
1032.1 1009.7
06 14.11 Ю 2 10 км 10/10 400 м
[St]
-5.1 -8.0 80 -9 -9 холодно 1031.4 1009.2 -8.0
09 14.11 Ю 2 7000 м дымка 10/10 180 м
[St]
-2.8 -4.8 86 -7 -7 холодно 1030.1 1008.1
12 14.11 Ю 1 9000 м дымка 10/10 270 м
[St]
-1.6 -3.7 86 -4 -4 холодно 1028.1 1006.3
15 14.11 ЮВ 1 9000 м дымка 10/10 1200 м
[Sc]
-1.5 -3.2 88 -4 -4 прохладно 1027.1 1005.3
18 14.11 штиль 0 8000 м дымка 10/10 400 м
[St]
-1.1 -2.7 89 -2 -2 по сезону 1026.4 1004.6 -1.1
21 14.11 штиль 0 2600 м слабый ливневой снег 10/10 330 м
[Cb calv]
-1.0 -2.3 91 -2 -2 по сезону 1025.9 1004.2
00 15.11 С 2 3600 м слабый ливневой снег 10/10 270 м
[Cb calv]
-1.2 -2.2 93 -5 -5 по сезону 1025.2 1003.5
03 15.11 СВ 3 4900 м слабый ливневой снег 10/10 360 м
[Cb calv]
-0.4 -1.3 94 -5 -5 по сезону 1025.1 1003.4
06 15.11 СВ 4 4800 м слабый ливневой дождь со снегом 10/10 900 м
[Cb calv]
+0.5 -0.3 94 -5 -5 по сезону 1026.2 1004.6 -1.4 2 <0.5
09 15.11 СВ 4 10 км {ливн. осадки} 10/10 1200 м
[Cb calv]
+1.0 -0.1 92 -4 -4 прохладно 1027.0 1005.4
12 15.11 СВ 5 20 км {ливн. осадки} 10/0
[Ac As]
+2.2 -0.9 80 -3 -3 прохладно 1027.5 1006.0
15 15.11 СВ 3 10 км 9/0
[Ac trans]
+1.0 -3.2 74 -3 -3 прохладно 1029.0 1007.3
18 15.11 СВ 5 10 км 8/0
[Ac trans]
+0.9 -5.2 64 -5 -5 прохладно 1030.3 1008.6 +2.5 0.0
21 15.11 СВ 5 10 км ясно -1.0 -9.8 51 -7 -7 холодно 1030.9 1009.0
00 16.11 С 4 10 км ясно -2.2 -10.9 51 -7 -7 прохладно 1031.5 1009.5
03 16.11 СВ 6 10 км 9/0
[Ac trans]
-2.1 -10.7 52 -9 -9 холодно 1031.5 1009.5
06 16.11 СВ 7 20 км 10/6 800 м
[Sc Ci fib]
-3.7 -11.3 56 -11 -11 очень
холодно
1032.7 1010.6 -3.9
09 16.11 СВ 7 20 км 10/10 660 м
[Cb calv]
-0.8 -10.5 48 -7 -7 холодно 1033.0 1011.1
12 16.11 СВ 8 20 км {ливн. осадки} 10/5 1080 м
[Cb calv Ac As]
-0.7 -5.6 69 -8 -8 очень
холодно
1032.8 1010.9
15 16.11 СВ 6 10 км {ливн. осадки} 10/10 930 м
[Cb calv]
0.0 -3.6 77 -6 -6 холодно 1033.7 1011.9
18 16.11 СВ 7 10 км {ливн. осадки} 10/10 1200 м
[Cb calv]
+0.5 -6.2 61 -6 -6 прохладно 1034.3 1012.5 +0.5 0.0
21 16.11 СВ 6 10 км 10/10 1000 м
[Cb calv]
0.0 -6.4 62 -6 -6 прохладно 1034.9 1013.0
00 17.11 СВ 6 10 км 10/10 1000 м
[Sc]
+0.3 -7.7 55 -6 -6 прохладно 1035.0 1013.2
03 17.11 С 4 4200 м слабый снег 10/0
[As op]
-2.4 -4.3 87 -8 -8 прохладно 1035.4 1013.3
06 17.11 СВ 5 20 км {снег} 10/6 600 м
[Cb calv Ac As]
-2.0 -3.8 87 -9 -9 холодно 1035.9 1013.9 -2.6 0.4 <0.5
09 17.11 СВ 5 20 км {ливн. осадки} 10/8 1020 м
[Sc Ac As]
-0.6 -5.8 68 -6 -6 прохладно 1035.7 1013.8
12 17.11 СВ 5 20 км {ливн. осадки} 10/10 870 м
[Sc]
+0.4 -7.1 57 -5 -5 холодно 1034.7 1012.9
15 17.11 С 3 10 км 9/0
[Ac trans]
+0.2 -4.6 70 -4 -4 прохладно 1034.9 1013.1
18 17.11 С 1 10 км 10/0
[Ac As]
-0.5 -3.9 78 -2 -2 по сезону 1034.4 1012.5 +0.6 0.0
21 17.11 СЗ 2 10 км 10/0
[Ac As]
-0.6 -4.4 75 -4 -4 по сезону 1033.0 1011.1
00 18.11 СЗ 2 10 км 10/0
[Ac As]
-0.8 -4.3 77 -4 -4 по сезону 1032.0 1010.1
03 18.11 СЗ 2 10 км 10/0
[Ac As]
-1.4 -4.1 82 -5 -5 по сезону 1030.1 1008.2
06 18.11 СЗ 1 10 км 10/0
[Ac As]
-1.8 -3.9 86 -4 -4 по сезону 1028.9 1007.0 -1.8 0
09 18.11 СЗ 1 10 км 9/0
[Ac trans]
+0.4 -4.0 72 -1 0 по сезону 1027.7 1006.0
12 18.11 ЮЗ 1 20 км 8/0
[Ac trans]
+2.9 -4.8 57 +2 +3 по сезону 1025.6 1004.2
15 18.11 штиль 0 10 км 6/0
[Ac trans]
+0.2 -5.1 68 -1 -1 по сезону 1025.2 1003.6
18 18.11 ЮВ 3 10 км 4/0
[Ac trans Ci fib]
-2.2 -5.8 76 -7 -7 холодно 1025.5 1003.7 +3.1
21 18.11 ЮВ 3 10 км 8/0
[Ac trans]
-4.5 -6.1 89 -10 -10 очень
холодно
1025.8 1003.8
00 19.11 ЮВ 2 2900 м дымка ясно -3.0 -3.7 95 -7 -7 прохладно 1025.2 1003.3
03 19.11 штиль 0 5000 м дымка 10/10 450 м
[St]
-1.6 -2.4 94 -3 -3 по сезону 1024.9 1003.1
06 19.11 СВ 3 8000 м дымка 9/9 600 м
[Sc]
-0.2 -1.6 90 -5 -5 по сезону 1024.9 1003.2 -4.5
09 19.11 В 6 10 км 9/0
[Ac trans]
+1.8 -2.9 71 -4 -4 прохладно 1025.1 1003.6
12 19.11 В 5 10 км 9/0
[Ac trans]
+2.1 -2.2 73 -3 -3 прохладно 1023.1 1001.7
15 19.11 СВ 8 10 км 10/0
[Ac As]
+1.4 -3.1 72 -5 -5 прохладно 1021.5 1000.0
18 19.11 В 8 1400 м сильный снег 10/9 90 м
[Frnb As op]
0.0 -4.6 71 -7 -7 холодно 1020.1 998.6 +2.6 0.7
21 19.11 СВ 7 1800 м ливневой снег 10/10 120 м
[Cb calv]
-1.2 -2.5 91 -9 -9 холодно 1018.7 997.1
00 20.11 СВ 6 3500 м слабый ливневой снег 10/10 150 м
[Cb calv]
-1.2 -2.2 93 -8 -8 прохладно 1018.1 996.5
03 20.11 СВ 6 2700 м слабый ливневой снег {метель} 10/10 210 м
[Cb calv]
-0.8 -1.8 93 -8 -8 прохладно 1018.3 996.7
06 20.11 С 5 1000 м ливневой снег {метель} 10/10 90 м
[Cb calv]
-1.0 -2.0 93 -7 -7 прохладно 1020.5 998.9 -1.3 18 13
09 20.11 СВ 5 10 км {ливн. осадки} 10/10 300 м
[St]
-0.8 -2.1 91 -7 -7 прохладно 1022.1 1000.5
12 20.11 СВ 5 10 км {ливн. осадки} 10/10 420 м
[St]
-0.6 -2.1 90 -7 -7 холодно 1023.2 1001.5
15 20.11 С 3 10 км 10/10 570 м
[Sc]
-0.8 -2.7 87 -6 -6 прохладно 1025.1 1003.4
18 20.11 СВ 4 10 км 10/10 800 м
[Sc]
-0.4 -2.8 84 -6 -6 прохладно 1025.0 1003.3 -0.4 1
21 20.11 СВ 3 10 км 9/6 720 м
[Sc Ac trans]
-0.7 -3.2 83 -5 -5 по сезону 1026.1 1004.4

 

Местоположение метеостанции Кропивницкий (Кировоградская область, Украина): широта 48.52 долгота 32.20 высота над уровнем моря 171 м.

В архиве по умолчанию представлена погода в Кропивницком за последнюю неделю. Архивные данные за месяц целиком и за предыдущие месяцы, начиная с января 2011 года, Вы можете получить, выбрав интересующий диапазон дат из раскрывающегося списка и нажав кнопку "Ввод!".


*Определитесь, кто Вы:
робот инопланетянин человек

Внимание! Время в таблицах - всемирное. Для получения местного времени необходимо прибавить поправку, которая в Кропивницком равна 2 ч.

Смотрите также архив погоды в соседних городах и на ближайших метеорологических станциях:

Погода в Знаменке (Кировоградская область, Украина) (41 км)
Погода в Бобринце (Кировоградская область, Украина) (50 км)
Погода в Новомиргороде (Кировоградская область, Украина) (51 км)
Погода в Долинской (Кировоградская область, Украина) (61 км)
Погода в Помошной (Кировоградская область, Украина) (67 км)
Погода в Чигирине (Черкасская область, Украина) (71 км)
Погода в Ротмистровке (Черкасская область, Украина) (77 км)
Погода в Кривом Роге (Днепропетровская область, Украина) (93 км)
Погода в Светловодске (Кировоградская область, Украина) (97 км)
Погода в Черкассах (Черкасская область, Украина) (101 км)

Пояснения к столбцам:

Ветер - указаны скорость ветра в м/с - средняя за 10 мин, порывы в срок и между сроками (в фигурных скобках) и направление, откуда дует ветер: С - северный, СВ - северо-восточный, В - восточный, ЮВ - юго-восточный, Ю - южный, ЮЗ - юго-западный, З - западный, СЗ - северо-западный.
Видимость - горизонтальная дальность видимости в метрах или километрах. При видимости от 1 до 10 км при отсутствии осадков обычно наблюдается дымка, при ухудшении видимости до 1 км и менее - туман. В сухую погоду видимость может ухудшаться дымом, пылью или мглою.
Явления - указаны атмосферные явления, наблюдавшиеся в срок или в последний час перед сроком; фигурными скобками обозначены явления, наблюдавшиеся между сроками (за 1-3 часа до срока); квадратными скобками обозначены град или гололедные отложения с указанием их диаметра в мм.
Облачность - указаны через наклонную черту общая и нижняя облачность в баллах и высота нижней границы облаков в метрах; квадратными скобками обозначены формы облаков: Ci - перистые, Cs - перисто-слоистые, Cc - перисто-кучевые, Ac - высококучевые, As - высокослоистые, Sc - слоисто-кучевые, Ns - слоисто-дождевые, Cu - кучевые, Cb - кучево-дождевые. Подробнее классификацию облаков см. в Атласе облаков (PDF).
T - Температура воздуха - температура, измеренная на высоте 2 м над землей.
Td - Температура точки росы - температура, при понижении до которой содержащийся в воздухе водяной пар достигнет насыщения.
f - Относительная влажность воздуха - влажноcть воздуха, измеренная на высоте 2 м над землей.
Te - Эффективная температура - температура, которую ощущает одетый по сезону человек в тени. Характеристика душности погоды. При расчете учитывается влияние влажности воздуха и скорости ветра на теплоощущения человека.
Tes - Эффективная температура на солнце - температура, которую ощущает человек, с поправкой на солнечный нагрев. Характеристика знойности погоды. Зависит от высоты солнца над горизонтом, облачности и скорости ветра. Ночью, в пасмурную погоду, а также при ветре 12 м/с и более поправка равна нулю.
P - Атмосферное давление - приведенное к уровню моря атмосферное давление.
Po - Атмосферное давление - измеренное на уровне метеостанции атмосферное давление.
Tmin - Минимальная температура - минимум температуры воздуха на высоте 2 м над землей.
Tmax - Максимальная температура - максимум температуры воздуха на высоте 2 м над землей.
R - Количество осадков - Количество выпавших осадков за период времени, мм. При наведении курсора мыши на число - период времени, за который выпало указанное количество осадков.
R24 - Количество осадков - Количество выпавших осадков за 24 часа, мм.
S - Снежный покров - Высота снежного покрова, см. При наведении курсора мыши на число - состояние снежного покрова и степень покрытия местности в баллах.